Regional Weather Roundup
Issued by NWS

Home | Current Version | Previous Version | Text Only | Print | Product List | Glossary On
Versions: 1 2 3 4 5 6 7 8 9 10 11 12 13 14 15 16 17 18 19 20 21 22 23 24 25 26 27 28 29 30 31 32 33 34 35 36 37 38 39 40 41 42 43 44 45 46 47 48 49 50
000
ASUS44 KMEG 200410
RWRTN
TENNESSEE HOURLY STATE WEATHER ROUNDUP
NATIONAL WEATHER SERVICE MEMPHIS TN
1100 PM CDT SAT APR 19 2014

TNZ002-004-019-021-049-052-054-088>092-200500-
WEST TENNESSEE

CITY           SKY/WX    TMP DP  RH WIND       PRES   REMARKS
MEMPHIS INTL   PTCLDY    64  44  48 CALM      30.15S
NWS MEMPHIS      N/A     57 N/A N/A MISG        N/A
JACKSON        CLEAR     53  46  77 CALM      30.16S
DYERSBURG      CLEAR     59  41  51 CALM      30.17F
UNION CITY     CLEAR     55  48  76 CALM      30.16S
PARIS          CLEAR     53  40  61 CALM      30.17F
LEXINGTON      CLEAR     54  45  71 CALM      30.16S
SAVANNAH       CLEAR     50  47  89 CALM      30.17S
$$

TNZ008-025-027-028-033-062-065-066-200500-
NORTH MIDDLE TENNESSEE

CITY           SKY/WX    TMP DP  RH WIND       PRES   REMARKS
NASHVILLE      PTCLDY    60  40  47 NE6       30.17S
DICKSON        CLEAR     57  39  51 CALM      30.17S
PORTLAND       CLEAR     57  37  47 CALM      30.18R
CLARKSVILLE    CLEAR     57  41  55 N3        30.18S
SMYRNA         CLEAR     54  43  66 CALM      30.18R
MURFREESBORO   CLEAR     57  42  57 CALM      30.16S
COOKEVILLE     CLEAR     46  41  81 CALM      30.17S
LIVINGSTON     CLEAR     59  38  45 NE3       30.19S
GALLATIN       CLEAR     60  40  47 NE8       30.18S
CROSSVILLE     CLEAR     51  40  65 CALM      30.19F
$$

TNZ061-075-076-078-094-096-097-200500-
SOUTH MIDDLE TENNESSEE

CITY           SKY/WX    TMP DP  RH WIND       PRES   REMARKS
LEWISBURG      CLEAR     49  44  83 CALM      30.16S
FAYETTEVILLE   CLEAR     56  40  55 S5        30.17S
TULLAHOMA      CLEAR     50  41  71 CALM      30.18S
WINCHESTER     CLEAR     55  43  62 CALM      30.18S
MCMINNVILLE    CLEAR     50  43  76 CALM      30.18R
COLUMBIA       CLEAR     52  48  87 CALM      30.16R
SHELBYVILLE    CLEAR     50  45  81 SE6       30.18R
$$

TNZ017-018-042-046-047-200500-
NORTHEAST TENNESSEE

CITY           SKY/WX    TMP DP  RH WIND       PRES   REMARKS
TRI CITIES     CLOUDY    52  40  63 CALM      30.22S
ELIZABETHTON   CLEAR     52  39  62 CALM      30.22S
$$

TNZ012-013-036-069-073-074-200500-
CENTRAL EAST TENNESSEE

CITY           SKY/WX    TMP DP  RH WIND       PRES   REMARKS
KNOXVILLE      MOCLDY    53  51  93 CALM      30.18S
OAK RIDGE      MOCLDY    51  45  79 CALM      30.20S
$$

TNZ083-085-099-200500-
SOUTHEAST TENNESSEE

CITY           SKY/WX    TMP DP  RH WIND       PRES   REMARKS
CHATTANOOGA    PTCLDY    54  47  77 SE3       30.17F
$$

SKY/WX REPORTED AS FAIR MEANS FEW OR NO CLOUDS BELOW
12 THOUSAND FEET.




USA.gov is the U.S. government's official web portal to all federal, state and local government web resources and services.